This demonstration page uses our WeatherBlox Daily Observations layout. Learn more.

Left ArrowRight Arrow

47.50024, -111.30081

Hourly Observations for March 1, 2017

Temp ( °F °C ) Dew Point ( °F °C ) Humidity (%) Winds ( mph kmh ) Pressure ( in mb ) Visibility ( mi km ) Precip ( " mm )
12:53 am 00:53 Clear 17 -8.3 8 -13.3 68 68 SW 14 22 30.11 1020 10 16 0.00 0.00
1:53 am 01:53 Partly Cloudy 20 -6.7 8 -13.3 60 60 SW 17 28 30.11 1020 10 16 0.00 0.00
2:53 am 02:53 Clear 22 -5.6 8 -13.3 55 55 SW 20 31 30.08 1019 10 16 0.00 0.00
3:53 am 03:53 Clear 24 -4.4 9 -12.8 52 52 SW 18 30 30.06 1018 10 16 0.00 0.00
4:53 am 04:53 Clear 27 -2.8 13 -10.6 55 55 WSW 29 46 30.04 1017 10 16 0.00 0.00
5:53 am 05:53 Clear 27 -2.8 14 -10 58 58 SW 33 54 30.05 1018 10 16 0.00 0.00
6:53 am 06:53 Clear 26 -3.3 14 -10 60 60 SW 28 44 30.07 1018 10 16 0.00 0.00
7:53 am 07:53 Partly Cloudy 28 -2.2 15 -9.4 58 58 SW 33 54 30.08 1019 10 16 0.00 0.00
8:53 am 08:53 Sunny 31 -0.6 17 -8.3 56 56 SW 32 52 30.12 1020 10 16 0.00 0.00
9:53 am 09:53 Mostly Sunny 32 0 19 -7.2 59 59 SW 29 46 30.13 1020 10 16 0.00 0.00
10:53 am 10:53 Partly Cloudy 35 1.7 20 -6.7 54 54 SW 26 43 30.12 1020 10 16 0.00 0.00
11:53 am 11:53 Mostly Sunny 38 3.3 21 -6.1 51 51 SW 26 43 30.12 1020 10 16 0.00 0.00
12:53 pm 12:53 Mostly Cloudy 39 3.9 19 -7.2 45 45 WSW 25 41 30.11 1020 10 16 0.00 0.00
1:53 pm 13:53 Mostly Cloudy 42 5.6 20 -6.7 41 41 WSW 26 43 30.11 1020 10 16 0.00 0.00
2:53 pm 14:53 Cloudy 40 4.4 19 -7.2 43 43 W 25 41 30.13 1020 10 16 0.00 0.00
3:53 pm 15:53 Cloudy 39 3.9 22 -5.6 50 50 NW 15 24 30.15 1021 10 16 0.00 0.00
4:53 pm 16:53 Cloudy 36 2.2 24 -4.4 62 62 NW 14 22 30.19 1022 10 16 0.00 0.00
5:46 pm 17:46 Cloudy 28 -2 25 -4 86 86 N 14 22 30.27 1025 10 16 0.00 0.00
5:53 pm 17:53 Cloudy 28 -2.2 24 -4.4 85 85 NNE 14 22 30.27 1025 10 16 0.00 0.00
6:09 pm 18:09 Mostly Cloudy 27 -2.8 22 -5.6 81 81 N 10 17 30.30 1026 10 16 0.00 0.00
6:53 pm 18:53 Cloudy 27 -2.8 23 -5 85 85 ENE 7 11 30.32 1027 10 16 0.00 0.00
7:03 pm 19:03 Cloudy 27 -3 23 -5 86 86 NNE 8 13 30.33 1027 10 16 0.00 0.00
7:13 pm 19:13 Cloudy 27 -2.8 23 -5 85 85 NNE 8 13 30.33 1027 10 16 0.00 0.00
7:44 pm 19:44 Cloudy 27 -3 23 -5 86 86 NNE 7 11 30.36 1028 10 16 0.00 0.00
7:53 pm 19:53 Cloudy 27 -2.8 23 -5 85 85 NE 5 7 30.35 1028 10 16 0.00 0.00
8:53 pm 20:53 Cloudy with Light Snow 27 -2.8 23 -5 85 85 Calm 30.37 1029 2 2 0.01 0.25
9:22 pm 21:22 Cloudy with Light Snow 27 -3 25 -4 93 93 S 3 6 30.39 1029 1 2 0.00 0.00
9:29 pm 21:29 Cloudy with Light Snow 26 -3.3 24 -4.4 92 92 S 5 7 30.39 1029 2 2 0.01 0.25
9:53 pm 21:53 Cloudy with Light Snow 26 -3.3 24 -4.4 92 92 SSW 6 9 30.39 1029 2 2 0.02 0.51
10:42 pm 22:42 Mostly Cloudy with Light Snow 27 -3 25 -4 93 93 SSW 6 9 30.42 1030 1 2 0.00 0.00
10:50 pm 22:50 Mostly Cloudy with Light Snow 27 -3 25 -4 93 93 SSW 7 11 30.42 1030 1 1 0.00 0.00
10:53 pm 22:53 Mostly Cloudy with Light Snow 26 -3.3 24 -4.4 92 92 SSW 6 9 30.40 1029 1 1 0.02 0.51
11:30 pm 23:30 Cloudy with Light Snow 26 -3.3 24 -4.4 92 92 SSW 7 11 30.42 1030 2 3 0.02 0.51
11:37 pm 23:37 Cloudy with Light Snow 26 -3.3 24 -4.4 92 92 SSW 7 11 30.42 1030 2 3 0.02 0.51
11:53 pm 23:53 Cloudy with Light Snow 26 -3.3 24 -4.4 92 92 S 6 9 30.40 1029 3 4 0.02 0.51

Powered by AerisWeather